Weather History for La Porte, IN

Change the Weather History Date:

Wednesday, June 12, 2013

  Actual Average (KVPZ) Record (KVPZ)
Temperature  
Mean Temperature 74 °F 68 °F  
Max Temperature 86 °F 79 °F 90 °F (2008)
Min Temperature 63 °F 58 °F 50 °F (2011)
Degree Days  
Heating Degree Days 0 2  
Month to date heating degree days 30  
Since 1 June heating degree days 30  
Since 1 July heating degree days 6309  
Cooling Degree Days 10 5  
Month to date cooling degree days 47  
Year to date cooling degree days 94  
Since 1 June cooling degree days 47  
Growing Degree Days 24 (Base 50)    
Moisture  
Dew Point 68 °F    
Average Humidity 86    
Maximum Humidity 100    
Minimum Humidity 56    
Precipitation  
Precipitation 0.53 in 0.13 in 1.23 in (2004)
Month to date precipitation 1.61  
Year to date precipitation 14.59  
Sea Level Pressure  
Sea Level Pressure 29.81 in    
Wind  
Wind Speed 2 mph (South)    
Max Wind Speed 17 mph    
Max Gust Speed 48 mph    
Visibility 8 miles    
Events Rain , Thunderstorm    
T = Trace of Precipitation, MM = Missing Value Source: NWS Daily Summary

Daily Weather History Graph

Daily Weather History Graph

Search for Another Location

Airport:

Trip Planner

Search our weather history database for the weather conditions in past years. The results will help you decide how hot, cold, wet, or windy it might be!

Date:

Astronomy

Jun. 12, 2013 Rise Set
Actual Time 5:12 AM CDT 8:21 PM CDT
Civil Twilight 4:38 AM CDT 8:55 PM CDT
Nautical Twilight 3:54 AM CDT 9:39 PM CDT
Astronomical Twilight 3:02 AM CDT 10:31 PM CDT
Moon 8:53 AM CDT (6/12) 10:54 PM CDT (6/12)
Length of Visible Light 16h 17m
Length of Day
15h 09m
Waxing Crescent, 14% of the Moon is Illuminated
Jun 12
Waxing Crescent
Jun 16
First Quarter
Jun 23
Full
Jun 29
Last Quarter
Jul 8
New

Hourly Weather History & Observations

Time (CDT) Temp. Heat Index Dew Point Humidity Pressure Visibility Wind Dir Wind Speed Gust Speed Precip Events Conditions
12:15 AM 68.7 °F - 66.0 °F 91% 29.88 in 10.0 mi Calm Calm - N/A   Clear
12:35 AM 66.9 °F - 66.0 °F 97% 29.86 in 10.0 mi Calm Calm - N/A   Clear
12:55 AM 66.9 °F - 66.0 °F 97% 29.87 in 10.0 mi Calm Calm - N/A   Clear
1:15 AM 65.7 °F - 64.9 °F 98% 29.88 in 10.0 mi Calm Calm - N/A   Clear
1:35 AM 65.1 °F - 64.6 °F 98% 29.87 in 7.0 mi Calm Calm - N/A   Clear
1:55 AM 66.0 °F - 66.0 °F 100% 29.87 in 7.0 mi Calm Calm - N/A   Clear
2:15 AM 65.5 °F - 65.5 °F 100% 29.89 in 7.0 mi Calm Calm - N/A   Clear
2:35 AM 66.0 °F - 66.0 °F 100% 29.90 in 7.0 mi North 3.5 mph - N/A   Scattered Clouds
2:55 AM 65.8 °F - 65.8 °F 100% 29.89 in 7.0 mi Calm Calm - N/A   Scattered Clouds
3:15 AM 65.8 °F - 65.8 °F 100% 29.89 in 7.0 mi Calm Calm - N/A   Clear
3:35 AM 65.1 °F - 65.1 °F 100% 29.90 in 7.0 mi Calm Calm - N/A   Clear
3:55 AM 65.5 °F - 65.5 °F 100% 29.89 in 7.0 mi Calm Calm - N/A   Clear
4:15 AM 64.8 °F - 64.8 °F 100% 29.88 in 5.0 mi Calm Calm - N/A   Clear
4:35 AM 65.5 °F - 65.5 °F 100% 29.87 in 4.0 mi Calm Calm - N/A   Clear
4:55 AM 64.4 °F - 64.4 °F 100% 29.87 in 3.0 mi Calm Calm - N/A   Clear
5:15 AM 63.1 °F - 63.1 °F 100% 29.88 in 4.0 mi Calm Calm - N/A   Clear
5:35 AM 63.9 °F - 63.9 °F 100% 29.87 in 3.0 mi Calm Calm - N/A   Clear
5:55 AM 64.4 °F - 64.4 °F 100% 29.88 in 3.0 mi Calm Calm - N/A   Clear
6:15 AM 64.9 °F - 64.9 °F 100% 29.89 in 4.0 mi Calm Calm - N/A   Clear
6:35 AM 66.6 °F - 66.6 °F 100% 29.89 in 5.0 mi SW 3.5 mph - N/A   Clear
6:55 AM 68.5 °F - 68.5 °F 100% 29.91 in 7.0 mi Calm Calm - N/A   Clear
7:15 AM 70.5 °F - 69.1 °F 95% 29.92 in 7.0 mi Calm Calm - N/A   Clear
7:35 AM 70.3 °F - 68.4 °F 93% 29.91 in 7.0 mi Calm Calm - N/A   Clear
7:55 AM 70.9 °F - 68.9 °F 93% 29.92 in 7.0 mi Calm Calm - N/A   Clear
8:15 AM 71.1 °F - 69.1 °F 93% 29.93 in 7.0 mi Calm Calm - N/A   Clear
8:35 AM 71.1 °F - 69.4 °F 95% 29.93 in 7.0 mi Calm Calm - N/A   Clear
8:55 AM 71.6 °F - 70.0 °F 95% 29.92 in 7.0 mi Calm Calm - N/A   Scattered Clouds
9:15 AM 72.0 °F - 69.4 °F 92% 29.93 in 7.0 mi WSW 4.6 mph - N/A   Clear
9:35 AM 72.7 °F - 69.4 °F 90% 29.91 in 7.0 mi Calm Calm - N/A   Clear
9:55 AM 73.6 °F - 69.1 °F 86% 29.88 in 7.0 mi ESE 5.8 mph - N/A   Clear
10:15 AM 73.8 °F - 69.1 °F 85% 29.90 in 10.0 mi Calm Calm - N/A   Clear
10:35 AM 75.0 °F - 69.1 °F 82% 29.88 in 10.0 mi South 4.6 mph - N/A   Clear
10:55 AM 76.3 °F - 67.6 °F 74% 29.88 in 10.0 mi SSW 5.8 mph - N/A   Clear
11:15 AM 76.1 °F - 70.0 °F 81% 29.87 in 10.0 mi South 3.5 mph - N/A   Clear
11:35 AM 76.1 °F - 69.8 °F 81% 29.84 in 10.0 mi SE 4.6 mph - N/A   Clear
11:55 AM 77.0 °F - 70.7 °F 81% 29.81 in 10.0 mi South 9.2 mph - N/A   Clear
12:15 PM 76.5 °F - 71.1 °F 83% 29.79 in 10.0 mi South 9.2 mph 17.3 mph N/A   Clear
12:35 PM 76.5 °F - 72.0 °F 86% 29.79 in 10.0 mi SSE 9.2 mph - N/A   Clear
12:55 PM 77.0 °F - 72.9 °F 87% 29.75 in 10.0 mi South 5.8 mph 16.1 mph N/A   Clear
1:15 PM 78.8 °F - 73.2 °F 83% 29.76 in 10.0 mi South 6.9 mph - N/A   Clear
1:35 PM 80.1 °F 84.4 °F 73.4 °F 80% 29.76 in 10.0 mi South 9.2 mph - N/A   Clear
1:55 PM 81.9 °F 87.0 °F 72.7 °F 74% 29.79 in 10.0 mi SSE 4.6 mph - N/A   Clear
2:15 PM 82.8 °F 87.4 °F 71.1 °F 68% 29.79 in 10.0 mi South 4.6 mph - N/A   Clear
2:35 PM 83.8 °F 88.3 °F 70.7 °F 64% 29.81 in 10.0 mi West 5.8 mph - N/A   Scattered Clouds
2:55 PM 83.8 °F 88.3 °F 70.7 °F 64% 29.81 in 10.0 mi WSW 4.6 mph - N/A   Scattered Clouds
3:15 PM 84.2 °F 89.3 °F 71.1 °F 65% 29.80 in 10.0 mi West 5.8 mph - N/A   Mostly Cloudy
3:35 PM 85.8 °F 90.4 °F 70.0 °F 59% 29.79 in 10.0 mi NW 3.5 mph - N/A   Mostly Cloudy
3:55 PM 84.6 °F 88.2 °F 68.9 °F 59% 29.78 in 10.0 mi NW 4.6 mph - N/A   Scattered Clouds
4:15 PM 84.9 °F 88.8 °F 68.9 °F 59% 29.77 in 10.0 mi Calm Calm - N/A   Scattered Clouds
4:35 PM 85.1 °F 88.5 °F 68.5 °F 57% 29.76 in 10.0 mi Calm Calm - N/A   Scattered Clouds
4:55 PM 86.2 °F 90.0 °F 68.7 °F 56% 29.74 in 10.0 mi Calm Calm - N/A   Scattered Clouds
5:15 PM 85.1 °F 88.5 °F 68.2 °F 57% 29.74 in 10.0 mi Calm Calm - N/A   Scattered Clouds
5:35 PM 84.6 °F 88.8 °F 69.6 °F 61% 29.72 in 10.0 mi ESE 4.6 mph - N/A   Scattered Clouds
5:55 PM 84.2 °F 88.1 °F 69.6 °F 61% 29.72 in 10.0 mi SE 3.5 mph - N/A   Clear
6:15 PM 83.1 °F 87.3 °F 70.3 °F 65% 29.71 in 10.0 mi ESE 4.6 mph - N/A Thunderstorm Scattered Clouds
6:35 PM 81.9 °F 85.8 °F 70.5 °F 68% 29.70 in 10.0 mi East 3.5 mph - N/A Thunderstorm Thunderstorm
6:55 PM 80.8 °F 84.4 °F 70.5 °F 71% 29.68 in 10.0 mi ENE 4.6 mph - N/A Thunderstorm Thunderstorm
7:15 PM 79.7 °F - 71.4 °F 76% 29.69 in 10.0 mi Calm Calm - N/A Thunderstorm Thunderstorm
7:35 PM 78.3 °F - 73.4 °F 85% 29.70 in 7.0 mi SSW 4.6 mph - 0.01 in Rain , Thunderstorm Thunderstorms and Rain
7:55 PM 71.1 °F - 62.6 °F 75% 29.72 in 1.2 mi NNW 5.8 mph 48.3 mph 0.47 in Rain , Thunderstorm Heavy Thunderstorms and Rain
8:15 PM 68.0 °F - 64.0 °F 87% 29.64 in 10.0 mi SE 6.9 mph - 0.01 in Rain , Thunderstorm Light Thunderstorms and Rain
8:35 PM 68.0 °F - 64.4 °F 88% 29.66 in 10.0 mi South 8.1 mph - 0.01 in Rain , Thunderstorm Light Thunderstorms and Rain
8:55 PM 68.0 °F - 65.3 °F 91% 29.69 in 5.0 mi South 12.7 mph - 0.05 in Rain , Thunderstorm Rain
9:15 PM 68.0 °F - 66.2 °F 94% 29.66 in 10.0 mi South 10.4 mph - N/A Rain , Thunderstorm Thunderstorms and Rain
9:35 PM 68.0 °F - 67.3 °F 98% 29.64 in 10.0 mi Calm Calm - 0.01 in Rain , Thunderstorm Light Thunderstorms and Rain
9:55 PM 68.0 °F - 67.6 °F 99% 29.67 in 10.0 mi Calm Calm - 0.01 in Thunderstorm Unknown
10:15 PM 68.0 °F - 67.5 °F 98% 29.67 in 10.0 mi NNE 4.6 mph - N/A Rain , Thunderstorm Light Thunderstorms and Rain
10:35 PM 66.2 °F - 65.3 °F 97% 29.69 in 10.0 mi North 15.0 mph 26.5 mph N/A   Mostly Cloudy
10:55 PM 64.6 °F - 63.7 °F 97% 29.71 in 10.0 mi NNE 17.3 mph 23.0 mph N/A   Overcast
11:15 PM 64.4 °F - 63.5 °F 97% 29.63 in 10.0 mi NE 10.4 mph - N/A Rain Light Rain
11:35 PM 64.4 °F - 63.5 °F 97% 29.66 in 10.0 mi NNE 8.1 mph - N/A   Mostly Cloudy
11:55 PM 64.8 °F - 63.7 °F 96% 29.73 in 10.0 mi NW 11.5 mph - N/A Thunderstorm Mostly Cloudy